E5175 Weather Reports


time (UTC)temp
F
wind
direction
speed
knots
gust
knots
rain 1hr
in
rain 24hr
in
rain mn
in
humidity
%
barometer
mb
20260906210017 92 113 8.7 13.9 0.00 0.00 0.00 39 1015.6
20260906205019 91 135 7.8 12.2 0.00 0.00 0.00 39 1015.7
20260906204017 91 113 9.6 13.9 0.00 0.00 0.00 41 1015.8
20260906203019 91 113 10.4 15.6 0.00 0.00 0.00 41 1016.2
20260906202018 90 90 9.6 13.9 0.00 0.00 0.00 42 1016.1
20260906201017 91 113 10.4 15.6 0.00 0.00 0.00 41 1016.4
20260906200017 91 113 8.7 15.6 0.00 0.00 0.00 40 1016.5
20260906195019 91 135 6.1 10.4 0.00 0.00 0.00 39 1016.8
20260906194017 90 113 4.3 8.7 0.00 0.00 0.00 39 1016.6
20260906193017 90 90 3.5 9.6 0.00 0.00 0.00 40 1017.1
20260906192019 90 135 5.2 9.6 0.00 0.00 0.00 40 1017.1
20260906191019 90 135 6.1 9.6 0.00 0.00 0.00 40 1017.2
20260906190017 89 135 6.1 10.4 0.00 0.00 0.00 40 1017.0
20260906185017 89 135 4.3 9.6 0.00 0.00 0.00 41 1017.2
20260906184019 89 113 6.1 13.9 0.00 0.00 0.00 42 1017.4
20260906183019 88 135 4.3 8.7 0.00 0.00 0.00 43 1017.7
20260906182017 87 135 4.3 9.6 0.00 0.00 0.00 43 1017.6
20260906181017 87 113 4.3 7.8 0.00 0.00 0.00 44 1017.8
20260906180019 86 135 4.3 7.8 0.00 0.00 0.00 47 1018.0
20260906175017 85 113 4.3 8.7 0.00 0.00 0.00 47 1017.8
20260906174017 84 203 3.5 7.8 0.00 0.00 0.00 48 1018.1
20260906173021 83 135 2.6 6.1 0.00 0.00 0.00 49 1018.0
20260906172019 83 68 2.6 8.7 0.00 0.00 0.00 49 1018.4
20260906171019 82 158 2.6 6.1 0.00 0.00 0.00 50 1018.3
20260906170019 82 90 2.6 7.0 0.00 0.00 0.00 51 1018.6
20260906165019 81 180 2.6 5.2 0.00 0.00 0.00 52 1018.6
20260906164020 80 113 1.7 7.8 0.00 0.00 0.00 53 1018.6
20260906163019 79 203 1.7 5.2 0.00 0.00 0.00 54 1018.7
20260906162019 78 180 0.9 4.3 0.00 0.00 0.00 55 1018.8
20260906161019 77 135 1.7 4.3 0.00 0.00 0.00 57 1018.6
20260906160019 77 113 1.7 4.3 0.00 0.00 0.00 57 1018.5
20260906155019 76 180 1.7 4.3 0.00 0.00 0.00 59 1018.6
20260906154017 76 90 2.6 3.5 0.00 0.00 0.00 60 1018.4
20260906153018 75 135 1.7 5.2 0.00 0.00 0.00 60 1018.5
20260906152019 74 135 2.6 7.0 0.00 0.00 0.00 62 1018.3
20260906151019 73 113 3.5 6.1 0.00 0.00 0.00 64 1018.4
20260906150019 72 135 4.3 7.8 0.00 0.00 0.00 64 1018.4
20260906145019 72 113 3.5 7.0 0.00 0.00 0.00 67 1018.4
20260906144019 71 135 4.3 7.8 0.00 0.00 0.00 68 1018.2
20260906143019 70 113 3.5 6.1 0.00 0.00 0.00 72 1018.2
20260906142018 68 113 1.7 3.5 0.00 0.00 0.00 77 1018.3
20260906141018 66 90 1.7 3.5 0.00 0.00 0.00 82 1018.2
20260906140019 64 23 1.7 2.6 0.00 0.00 0.00 85 1018.3
20260906135019 62 0.0 0.0 0.00 0.00 0.00 89 1018.2
20260906134018 61 0.0 0.0 0.00 0.00 0.00 88 1018.5
20260906133019 61 0.0 0.0 0.00 0.00 0.00 90 1018.8
20260906132019 59 0.0 0.0 0.00 0.00 0.00 92 1018.4
20260906131019 58 0.0 0.0 0.00 0.00 0.00 93 1018.5
20260906130019 57 0.0 0.0 0.00 0.00 0.00 92 1018.2
20260906125019 57 0.0 0.0 0.00 0.00 0.00 92 1018.3
20260906124019 56 0.0 0.0 0.00 0.00 0.00 92 1018.0
20260906123019 56 0.0 0.0 0.00 0.00 0.00 92 1017.9
20260906122019 56 0.0 0.0 0.00 0.00 0.00 91 1018.2
20260906121018 56 0.0 0.0 0.00 0.00 0.00 91 1018.2
20260906120018 56 0.0 0.0 0.00 0.00 0.00 91 1018.2
20260906115019 57 0.0 0.0 0.00 0.00 0.00 91 1018.5
20260906114018 57 0.0 0.0 0.00 0.00 0.00 92 1018.6
20260906113019 57 0.0 0.0 0.00 0.00 0.00 92 1018.8
20260906112018 57 0.0 0.9 0.00 0.00 0.00 91 1019.2
20260906111018 57 0.0 1.7 0.00 0.00 0.00 92 1019.6
20260906110019 57 0.0 2.6 0.00 0.00 0.00 92 1019.6
20260906105018 57 0.0 1.7 0.00 0.00 0.00 92 1020.0
20260906104018 57 248 0.9 2.6 0.00 0.00 0.00 91 1020.0
20260906103018 57 0.0 0.0 0.00 0.00 0.00 91 1019.8
20260906102018 57 0.0 1.7 0.00 0.00 0.00 91 1019.7
20260906101018 57 248 0.9 2.6 0.00 0.00 0.00 89 1019.8
20260906100018 57 0.0 0.0 0.00 0.00 0.00 90 1020.0
20260906095018 57 0.0 1.7 0.00 0.00 0.00 90 1019.8
20260906094018 58 248 0.9 2.6 0.00 0.00 0.00 89 1019.7
20260906093018 58 0.0 0.0 0.00 0.00 0.00 89 1019.7
20260906092019 58 0.0 0.0 0.00 0.00 0.00 89 1019.5
20260906091018 59 0.0 0.0 0.00 0.00 0.00 89 1019.5
20260906090018 59 0.0 0.0 0.00 0.00 0.00 88 1019.3
20260906085018 60 0.0 2.6 0.00 0.00 0.00 88 1019.3
20260906084018 60 0.0 2.6 0.00 0.00 0.00 88 1019.1
20260906083018 61 0.0 0.0 0.00 0.00 0.00 88 1019.0
20260906082020 61 90 0.9 2.6 0.00 0.00 0.00 87 1018.7
20260906081018 61 45 0.9 2.6 0.00 0.00 0.00 86 1019.2
20260906080018 62 45 1.7 2.6 0.00 0.00 0.00 85 1019.8
20260906075018 63 0.0 0.0 0.00 0.00 0.00 85 1019.9
20260906074018 64 0.0 1.7 0.00 0.00 0.00 84 1019.9
20260906073018 64 113 0.9 2.6 0.00 0.00 0.00 84 1020.2
20260906072018 64 113 3.5 6.1 0.00 0.00 0.00 84 1020.0
20260906071018 65 113 2.6 6.1 0.00 0.00 0.00 84 1020.2
20260906070018 65 113 5.2 7.8 0.00 0.00 0.00 84 1019.9
20260906065018 64 113 2.6 6.1 0.00 0.00 0.00 85 1019.9
20260906064018 64 113 1.7 2.6 0.00 0.00 0.00 85 1020.2
20260906063018 64 113 1.7 3.5 0.00 0.00 0.00 86 1019.9
20260906062018 64 90 2.6 5.2 0.00 0.00 0.00 85 1019.7
20260906061018 64 113 3.5 5.2 0.00 0.00 0.00 85 1019.4
20260906060018 64 113 2.6 5.2 0.00 0.00 0.00 84 1019.0
20260906055019 65 113 1.7 3.5 0.00 0.00 0.00 84 1019.1
20260906054019 65 90 4.3 7.0 0.00 0.00 0.00 86 1018.6
20260906053018 64 113 3.5 5.2 0.00 0.00 0.00 86 1018.0
20260906052019 65 90 2.6 4.3 0.00 0.00 0.00 86 1017.7
20260906051018 65 90 2.6 4.3 0.00 0.00 0.00 84 1017.5
20260906050019 66 68 1.7 3.5 0.00 0.00 0.00 83 1017.7
20260906045019 67 90 2.6 5.2 0.00 0.00 0.00 82 1017.8
20260906044019 67 23 2.6 3.5 0.00 0.00 0.00 81 1018.0
20260906043018 68 0.0 1.7 0.00 0.00 0.00 79 1017.6
20260906042020 68 90 1.7 3.5 0.00 0.00 0.00 79 1017.8
20260906041020 68 135 5.2 8.7 0.00 0.00 0.00 80 1017.9
20260906040019 68 135 4.3 7.8 0.00 0.00 0.00 81 1017.7
20260906035026 68 135 7.8 13.0 0.00 0.00 0.00 81 1017.5
20260906034018 68 135 8.7 13.0 0.00 0.00 0.00 81 1017.4
20260906033018 67 135 10.4 15.6 0.00 0.00 0.00 81 1017.0
20260906032019 67 113 8.7 11.3 0.00 0.00 0.00 81 1016.9
20260906031023 68 113 7.0 9.6 0.00 0.00 0.00 80 1017.1
20260906030019 68 113 9.6 13.9 0.00 0.00 0.00 79 1017.1
20260906025018 68 113 9.6 12.2 0.00 0.00 0.00 77 1016.4
20260906024018 69 135 9.6 13.9 0.00 0.00 0.00 76 1015.9
20260906023018 69 135 12.2 17.4 0.00 0.00 0.00 74 1016.4
20260906022018 70 113 14.8 22.6 0.00 0.00 0.00 71 1016.6
20260906021018 71 113 13.9 20.0 0.00 0.00 0.00 67 1016.7
20260906020018 72 135 16.5 23.5 0.00 0.00 0.00 64 1016.2
20260906015018 73 135 13.9 20.9 0.00 0.00 0.00 63 1016.2
20260906014018 75 113 17.4 26.9 0.00 0.00 0.00 58 1015.9
20260906013018 77 113 13.9 19.1 0.00 0.00 0.00 57 1015.7
20260906012019 77 113 13.0 17.4 0.00 0.00 0.00 55 1015.1
20260906011018 78 113 12.2 17.4 0.00 0.00 0.00 55 1014.5
20260906010018 80 113 14.8 21.7 0.00 0.00 0.00 51 1014.6
20260906005020 80 113 13.0 18.2 0.00 0.00 0.00 48 1014.5
20260906004018 80 90 13.0 20.9 0.00 0.00 0.00 51 1014.6
20260906003020 79 113 12.2 19.1 0.00 0.00 0.00 56 1014.9
20260906002019 81 113 15.6 22.6 0.00 0.00 0.00 55 1015.0
20260906001018 82 90 12.2 18.2 0.00 0.00 0.00 51 1014.6
20260906000018 82 90 13.0 21.7 0.00 0.00 0.00 51 1014.3
20260905235018 83 68 11.3 17.4 0.00 0.00 0.00 48 1014.3
20260905234018 84 68 13.0 20.9 0.00 0.00 0.00 46 1014.1
20260905233018 85 68 12.2 20.0 0.00 0.00 0.00 43 1014.2
20260905232018 89 45 13.9 23.5 0.00 0.00 0.00 35 1014.8
20260905231018 94 45 6.1 13.0 0.00 0.00 0.00 25 1015.0
20260905230018 96 0 7.8 13.0 0.00 0.00 0.00 22 1015.0
20260905225018 97 270 2.6 6.1 0.00 0.00 0.00 23 1014.8
20260905224021 97 0.0 1.7 0.00 0.00 0.00 23 1015.0
20260905223018 96 203 1.7 6.1 0.00 0.00 0.00 22 1014.8
20260905222019 96 315 3.5 7.0 0.00 0.00 0.00 23 1014.8
20260905221018 96 225 2.6 7.0 0.00 0.00 0.00 23 1015.0
20260905220018 97 248 4.3 9.6 0.00 0.00 0.00 21 1015.1
20260905215019 97 180 1.7 5.2 0.00 0.00 0.00 24 1015.4
20260905214018 97 180 4.3 10.4 0.00 0.00 0.00 23 1015.5
20260905213018 97 180 3.5 8.7 0.00 0.00 0.00 24 1015.8
20260905212019 96 180 3.5 7.8 0.00 0.00 0.00 23 1015.7
20260905211019 95 113 2.6 11.3 0.00 0.00 0.00 24 1015.7